Total_Precipitation_Accumulation
0.03 0.06 0.11 0.15 0.15 0.12 0.08 0.05 0.08 0.10 0.20 0.22 0.32 0.38 0.44 0.44 0.42 0.38 0.37 0.30 0.28 0.31 0.45 0.51 0.55 0.54 0.53 0.58 0.72 0.86 0.95 1.05 1.20 1.32 1.33 1.22 1.17 1.22 1.29 1.36 1.42 1.56 1.55 1.51
0.03 0.06 0.10 0.12 0.14 0.10 0.07 0.05 0.05 0.08 0.14 0.20 0.33 0.35 0.39 0.37 0.34 0.38 0.40 0.35 0.33 0.41 0.53 0.53 0.50 0.52 0.53 0.58 0.65 0.69 0.78 0.88 1.05 1.22 1.31 1.27 1.25 1.35 1.46 1.53 1.65 1.71 1.65 1.60
0.04 0.07 0.09 0.16 0.13 0.09 0.08 0.07 0.07 0.10 0.15 0.19 0.27 0.38 0.46 0.48 0.52 0.51 0.39 0.34 0.36 0.40 0.46 0.54 0.47 0.44 0.49 0.54 0.63 0.74 0.86 0.97 1.04 1.16 1.27 1.30 1.31 1.41 1.51 1.54 1.56 1.62 1.61 1.56
0.09 0.10 0.15 0.16 0.12 0.11 0.11 0.12 0.15 0.19 0.21 0.26 0.28 0.36 0.47 0.50 0.48 0.46 0.45 0.50 0.54 0.62 0.64 0.62 0.56 0.56 0.64 0.68 0.74 0.81 0.88 0.97 1.03 1.14 1.26 1.38 1.53 1.62 1.68 1.73 1.74 1.73 1.66 1.61
0.16 0.15 0.18 0.20 0.18 0.18 0.21 0.25 0.26 0.34 0.38 0.38 0.37 0.37 0.46 0.54 0.51 0.54 0.52 0.53 0.62 0.70 0.76 0.68 0.70 0.72 0.80 0.85 0.95 1.00 1.01 1.09 1.16 1.23 1.37 1.46 1.54 1.67 1.77 1.84 1.82 1.81 1.80 1.82
0.24 0.26 0.28 0.28 0.29 0.24 0.26 0.50 0.46 0.49 0.53 0.51 0.52 0.65 0.76 0.77 0.68 0.64 0.63 0.64 0.70 0.72 0.74 0.82 0.85 0.89 0.95 1.02 1.13 1.19 1.18 1.22 1.27 1.41 1.49 1.50 1.51 1.58 1.63 1.68 1.71 1.74 1.71 1.78
0.35 0.34 0.33 0.32 0.32 0.32 0.57 0.83 0.83 0.82 0.77 0.68 0.74 0.79 0.75 0.69 0.72 0.69 0.71 0.79 0.77 0.78 0.84 0.87 0.86 0.89 0.99 1.11 1.21 1.27 1.28 1.28 1.34 1.42 1.57 1.60 1.62 1.57 1.51 1.52 1.55 1.61 1.64 1.70
0.55 0.64 0.66 0.46 0.48 0.68 0.87 0.85 1.00 0.91 0.81 0.77 0.72 0.69 0.65 0.65 0.74 0.80 0.83 0.90 0.89 0.87 0.86 0.87 0.91 0.97 1.04 1.15 1.20 1.20 1.19 1.22 1.28 1.33 1.32 1.34 1.47 1.52 1.51 1.50 1.52 1.58 1.66 1.68
0.76 0.82 0.74 0.63 0.65 0.73 0.71 0.72 0.84 0.82 0.72 0.71 0.67 0.63 0.59 0.64 0.69 0.72 0.77 0.83 0.86 0.89 0.92 0.94 0.97 1.04 1.16 1.20 1.21 1.19 1.25 1.35 1.41 1.42 1.41 1.40 1.41 1.42 1.39 1.35 1.29 1.30 1.43 1.50
1.02 1.03 0.89 0.76 0.64 0.65 0.65 0.66 0.69 0.76 0.80 0.78 0.72 0.66 0.65 0.65 0.68 0.77 0.83 0.84 0.86 0.88 0.93 1.03 1.11 1.19 1.19 1.15 1.21 1.35 1.41 1.38 1.36 1.38 1.34 1.32 1.37 1.34 1.29 1.25 1.21 1.18 1.32 1.46
1.46 1.51 1.30 1.12 0.94 0.83 0.78 0.77 0.77 0.83 0.88 0.92 0.90 0.87 0.84 0.75 0.72 0.75 0.80 0.80 0.81 0.87 0.95 1.04 1.08 1.15 1.23 1.24 1.27 1.34 1.29 1.19 1.21 1.23 1.17 1.09 1.16 1.22 1.13 1.12 1.14 1.15 1.30 1.52
1.75 1.60 1.55 1.42 1.15 0.98 0.93 0.99 0.92 0.92 0.93 0.91 0.88 0.87 0.87 0.85 0.74 0.67 0.68 0.76 0.82 0.85 0.93 1.01 1.05 1.08 1.09 1.12 1.19 1.25 1.25 1.15 1.06 1.03 1.02 1.04 1.08 1.11 1.08 0.94 0.93 0.89 0.96 1.09
1.42 1.40 1.40 1.31 1.16 1.01 1.00 0.99 0.99 0.95 0.92 0.90 0.86 0.78 0.72 0.75 0.78 0.73 0.72 0.75 0.84 0.92 0.96 0.98 0.97 0.99 1.00 1.04 1.15 1.22 1.24 1.19 1.06 0.93 0.87 0.87 0.91 0.97 0.99 0.91 0.73 0.67 0.67 0.67
1.44 1.36 1.38 1.30 1.24 1.09 1.08 1.00 0.96 0.88 0.81 0.78 0.81 0.77 0.70 0.70 0.77 0.80 0.83 0.86 0.95 1.02 0.98 0.94 0.91 0.91 0.90 0.92 0.97 1.01 1.04 1.06 0.98 0.89 0.84 0.81 0.80 0.79 0.79 0.85 0.87 0.77 0.65 0.57
1.23 1.24 1.36 1.32 1.24 1.19 1.16 1.06 0.94 0.80 0.74 0.75 0.75 0.71 0.69 0.74 0.81 0.90 0.92 0.97 1.02 1.01 0.93 0.85 0.83 0.86 0.90 0.94 0.93 0.90 0.95 0.96 0.89 0.86 0.86 0.86 0.87 0.81 0.76 0.79 0.89 0.96 0.89 0.69
1.09 1.17 1.17 1.23 1.33 1.22 1.12 1.05 0.99 0.88 0.77 0.77 0.78 0.73 0.66 0.67 0.75 0.83 0.89 0.98 1.08 1.08 0.98 0.90 0.82 0.75 0.74 0.85 0.90 0.86 0.87 0.95 0.89 0.81 0.81 0.85 0.86 0.82 0.83 0.90 0.99 1.10 1.11 0.86
1.13 1.18 1.12 1.11 1.20 1.20 1.11 1.01 0.98 0.93 0.87 0.88 0.86 0.77 0.71 0.68 0.76 0.87 0.91 0.90 0.91 0.90 0.89 0.86 0.75 0.65 0.63 0.71 0.76 0.79 0.80 0.83 0.84 0.78 0.81 0.85 0.86 0.87 0.88 0.97 1.07 1.14 1.08 0.87
1.04 0.96 0.91 0.91 0.96 0.99 0.98 0.96 0.95 0.90 0.87 0.87 0.85 0.78 0.73 0.73 0.83 0.95 0.99 0.97 0.87 0.79 0.77 0.74 0.65 0.59 0.61 0.65 0.68 0.74 0.75 0.78 0.78 0.78 0.79 0.80 0.83 0.89 0.95 1.06 1.16 1.19 1.06 0.89
0.97 0.90 0.82 0.81 0.77 0.78 0.84 0.88 0.89 0.84 0.79 0.76 0.76 0.73 0.69 0.66 0.77 0.90 0.94 1.05 1.09 1.00 0.85 0.71 0.66 0.59 0.60 0.62 0.62 0.65 0.68 0.73 0.77 0.80 0.81 0.77 0.77 0.82 0.86 0.94 1.05 1.10 1.00 0.93
0.92 0.91 0.83 0.78 0.75 0.69 0.69 0.69 0.75 0.78 0.73 0.67 0.65 0.64 0.61 0.64 0.78 0.94 1.00 1.08 1.17 1.11 0.95 0.78 0.56 0.49 0.46 0.47 0.50 0.48 0.49 0.48 0.49 0.52 0.54 0.56 0.60 0.64 0.66 0.71 0.82 0.89 0.86 0.89
0.96 0.90 0.85 0.77 0.77 0.72 0.66 0.61 0.63 0.69 0.67 0.67 0.69 0.66 0.63 0.65 0.72 0.89 1.16 1.27 1.11 0.96 0.88 0.84 0.58 0.41 0.36 0.39 0.45 0.43 0.42 0.42 0.41 0.44 0.46 0.47 0.51 0.55 0.62 0.68 0.73 0.76 0.81 0.84
0.96 0.89 0.84 0.79 0.75 0.76 0.73 0.65 0.61 0.63 0.64 0.64 0.62 0.62 0.62 0.62 0.65 0.77 0.93 1.12 1.04 0.93 0.74 0.68 0.58 0.42 0.36 0.32 0.31 0.36 0.40 0.44 0.45 0.48 0.50 0.51 0.54 0.58 0.63 0.64 0.66 0.69 0.75 0.82
0.99 0.91 0.83 0.76 0.72 0.73 0.70 0.67 0.61 0.58 0.58 0.56 0.55 0.57 0.60 0.60 0.59 0.72 0.82 0.76 0.74 0.74 0.58 0.53 0.53 0.46 0.38 0.32 0.31 0.33 0.36 0.40 0.43 0.44 0.45 0.47 0.52 0.56 0.60 0.62 0.64 0.66 0.75 0.80
0.92 0.92 0.86 0.82 0.72 0.66 0.68 0.66 0.60 0.57 0.55 0.55 0.55 0.57 0.59 0.58 0.54 0.54 0.59 0.64 0.68 0.68 0.57 0.56 0.51 0.42 0.37 0.36 0.39 0.40 0.40 0.41 0.40 0.39 0.41 0.45 0.51 0.57 0.66 0.71 0.73 0.72 0.74 0.73
0.86 0.83 0.81 0.81 0.73 0.64 0.61 0.60 0.59 0.60 0.58 0.57 0.55 0.57 0.55 0.53 0.55 0.55 0.54 0.56 0.61 0.59 0.55 0.57 0.53 0.50 0.44 0.45 0.48 0.49 0.47 0.46 0.46 0.44 0.46 0.50 0.57 0.65 0.70 0.74 0.73 0.70 0.68 0.68
0.73 0.71 0.73 0.70 0.65 0.61 0.59 0.59 0.63 0.62 0.61 0.61 0.61 0.60 0.54 0.52 0.56 0.60 0.66 0.65 0.61 0.59 0.53 0.50 0.49 0.51 0.49 0.52 0.56 0.58 0.55 0.53 0.51 0.50 0.53 0.59 0.65 0.70 0.68 0.62 0.60 0.59 0.57 0.54
0.66 0.65 0.67 0.66 0.65 0.60 0.56 0.57 0.64 0.72 0.71 0.65 0.66 0.65 0.62 0.65 0.68 0.70 0.69 0.67 0.64 0.60 0.54 0.49 0.45 0.42 0.43 0.47 0.50 0.53 0.54 0.54 0.52 0.54 0.57 0.60 0.60 0.57 0.53 0.48 0.49 0.47 0.43 0.44